Location: ????????
(56.1167°N, 38.6333°E)
Time: 21:35:15
(UTC+00:00)

Cosmos 1656 Rocket - Pass Details

Date: 18 November 2025
Orbit: 792 x 846 km, 71.1° (Epoch: 14 December)

Event Time Altitude Azimuth Distance (km) Brightness Sun altitude
Rises 16:20:50 0° 196° (SSW) 3,340 7.0 -25.7°
Reaches altitude 10° 16:23:16 10° 193° (SSW) 2,420 6.2 -26.1°
Enters shadow 16:26:42 37° 174° (S) 1,271 4.5 -26.5°
